Погода в Бая-Маре

Румыния     47°39′14″N   23°34′21″E
темп.,
°C
ветер,
м/с
пор.,
м/с
влажн.,
%
обл.,
%
осадки,
мм/ч
давл.,
гПа
погр.,
м
21 апреля, ср
ср2100:00+4вюв119220 0.2 101410
03:00+3вюв119666 0.3 101510
06:00+3вюв119855 0.1 101515
09:00+5ююз1295100 0.3 1017292
12:00+7юз1287100 0.1 1017548
15:00+11юз226620 0.2 1016991
18:00+10зюз248496 2.2 1016597
21:00+6вюв1194100 4.5 101716
22 апреля, чт
чт2200:00+5вюв22957 0.8 101825
03:00+5вюв229237 0.8 101827
06:00+6вюв2291100 0.0 101848
09:00+8юв238773 0.0 1019157
12:00+11ююз377417 0.8 1018908
15:00+12юз487386 2.8 10171557
18:00+11юз597716 1.6 10161222
21:00+8юз21093100 5.3 1017271
23 апреля, пт
пт2300:00+7ююв2399100 4.6 1017143
03:00+7зюз2599100 6.8 1016432
06:00+4зюз1299100 0.4 1018182
09:00+4з229668 0.5 1020277
12:00+8зсз575110 0.1 10201787
15:00+7з456599 0.7 10201400
18:00+7з4778100 1.5 10201082
21:00+3всв1183100 2.4 102110
24 апреля, сб
сб2400:00+3зсз139477 0.3 1022214
03:000ссз11976 0.3 102418
06:00−1с11963 0.0 102510
09:00+3сз267713 0.0 1025820
12:00+6сз465482 0.0 10251522
15:00+7зсз464876 0.1 10241733
18:00+7зсз34525 0.0 10231126
21:00+2всв22760 0.0 102312
25 апреля, вс
вс2500:00+1в227245 0.0 102314
03:00+2вюв227095 0.0 102240
06:00+2ююв117771 0.1 102228
09:00+4зсз2570100 0.1 1022717
12:00+7зсз455649 0.1 10221498
15:00+7зсз564961 0.3 10211896
18:00+6зсз565061 0.1 10211717
21:00+1ссз117915 0.1 102211